Data No.,UTC Date,UTC Time,Latitude,Longitude,Course(deg),Temp(degC),Sal(psu)
770,2006/1/10,19:25:00,30-59.8600N,138-27.5900E,161,19.69,34.8325
771,2006/1/10,19:26:00,30-59.6200N,138-27.6800E,161,19.691,34.8352
772,2006/1/10,19:27:00,30-59.3900N,138-27.7700E,161,19.691,34.8349
773,2006/1/10,19:28:00,30-59.1600N,138-27.8700E,161,19.691,34.8345
774,2006/1/10,19:29:00,30-58.9300N,138-27.9600E,160,19.68,34.8373
775,2006/1/10,19:30:00,30-58.6900N,138-28.0500E,161,19.678,34.8365
776,2006/1/10,19:31:00,30-58.4600N,138-28.1400E,161,19.677,34.8354
777,2006/1/10,19:32:00,30-58.2200N,138-28.2300E,161,19.674,34.8364
778,2006/1/10,19:33:00,30-57.9900N,138-28.3200E,161,19.662,34.8383
779,2006/1/10,19:34:00,30-57.7500N,138-28.4200E,160,19.656,34.837
780,2006/1/10,19:35:00,30-57.5200N,138-28.5200E,159,19.634,34.8393
781,2006/1/10,19:36:00,30-57.2700N,138-28.6300E,159,19.618,34.8393
782,2006/1/10,19:37:00,30-57.0400N,138-28.7200E,160,19.603,34.8389
783,2006/1/10,19:38:00,30-56.8000N,138-28.8300E,159,19.594,34.8414
784,2006/1/10,19:39:00,30-56.5800N,138-28.9200E,160,19.605,34.8448
785,2006/1/10,19:40:00,30-56.3400N,138-29.0300E,159,19.597,34.8511
786,2006/1/10,19:41:00,30-56.1100N,138-29.1300E,159,19.582,34.8523
787,2006/1/10,19:42:00,30-55.8800N,138-29.2300E,159,19.584,34.852
788,2006/1/10,19:43:00,30-55.6400N,138-29.3300E,160,19.576,34.8493
789,2006/1/10,19:44:00,30-55.4100N,138-29.4200E,160,19.574,34.8477
790,2006/1/10,19:45:00,30-55.1800N,138-29.5200E,160,19.562,34.8468
791,2006/1/10,19:46:00,30-54.9500N,138-29.6100E,160,19.541,34.8488
792,2006/1/10,19:47:00,30-54.7100N,138-29.7100E,160,19.521,34.8485
793,2006/1/10,19:48:00,30-54.4800N,138-29.8100E,160,19.505,34.8486
794,2006/1/10,19:49:00,30-54.2500N,138-29.9000E,160,19.498,34.8491
795,2006/1/10,19:50:00,30-54.0100N,138-30.0000E,160,19.483,34.848
796,2006/1/10,19:51:00,30-53.7800N,138-30.1000E,160,19.482,34.8516
797,2006/1/10,19:52:00,30-53.5500N,138-30.1900E,160,19.466,34.8502
798,2006/1/10,19:53:00,30-53.3100N,138-30.2900E,160,19.441,34.8511
799,2006/1/10,19:54:00,30-53.0800N,138-30.3900E,159,19.41,34.8518
800,2006/1/10,19:55:00,30-52.8400N,138-30.4900E,159,19.391,34.8527
801,2006/1/10,19:56:00,30-52.6100N,138-30.5900E,158,19.355,34.8506
802,2006/1/10,19:57:00,30-52.3800N,138-30.6900E,159,19.339,34.852
803,2006/1/10,19:58:00,30-52.1500N,138-30.7900E,159,19.332,34.8484
804,2006/1/10,19:59:00,30-51.9200N,138-30.8900E,160,19.32,34.8475
805,2006/1/10,20:00:00,30-51.6900N,138-30.9800E,161,19.303,34.8461
806,2006/1/10,20:01:00,30-51.4600N,138-31.0700E,161,19.294,34.8464
807,2006/1/10,20:02:00,30-51.2200N,138-31.1600E,161,19.279,34.8428
808,2006/1/10,20:03:00,30-50.9700N,138-31.2600E,160,19.27,34.8419
809,2006/1/10,20:04:00,30-50.7400N,138-31.3500E,161,19.263,34.841
810,2006/1/10,20:05:00,30-50.5100N,138-31.4500E,160,19.253,34.8415
811,2006/1/10,20:06:00,30-50.2900N,138-31.5400E,158,19.266,34.84
812,2006/1/10,20:07:00,30-50.0600N,138-31.6400E,159,19.297,34.8403
813,2006/1/10,20:08:00,30-49.8200N,138-31.7400E,160,19.319,34.8399
814,2006/1/10,20:09:00,30-49.6000N,138-31.8300E,160,19.334,34.839
815,2006/1/10,20:10:00,30-49.3700N,138-31.9200E,160,19.346,34.8379
816,2006/1/10,20:11:00,30-49.1400N,138-32.0200E,160,19.365,34.8398
817,2006/1/10,20:12:00,30-48.9100N,138-32.1200E,159,19.367,34.839
818,2006/1/10,20:13:00,30-48.6900N,138-32.2100E,159,19.363,34.8384
819,2006/1/10,20:14:00,30-48.4600N,138-32.3100E,159,19.368,34.8368
820,2006/1/10,20:15:00,30-48.2400N,138-32.4000E,161,19.373,34.8368
821,2006/1/10,20:16:00,30-48.0100N,138-32.4900E,160,19.371,34.838
822,2006/1/10,20:17:00,30-47.7800N,138-32.5900E,159,19.364,34.8384
823,2006/1/10,20:18:00,30-47.5600N,138-32.6800E,159,19.362,34.8378
824,2006/1/10,20:19:00,30-47.3300N,138-32.7800E,160,19.358,34.8401
825,2006/1/10,20:20:00,30-47.1100N,138-32.8700E,159,19.361,34.8382
826,2006/1/10,20:21:00,30-46.8800N,138-32.9700E,160,19.373,34.8379
827,2006/1/10,20:22:00,30-46.6600N,138-33.0600E,160,19.377,34.8377
828,2006/1/10,20:23:00,30-46.4300N,138-33.1600E,160,19.387,34.8382
829,2006/1/10,20:24:00,30-46.2100N,138-33.2500E,160,19.393,34.8387
830,2006/1/10,20:25:00,30-45.9800N,138-33.3400E,160,19.392,34.8385
831,2006/1/10,20:26:00,30-45.7600N,138-33.4400E,160,19.397,34.8376
832,2006/1/10,20:27:00,30-45.5400N,138-33.5300E,160,19.394,34.8384
833,2006/1/10,20:28:00,30-45.3100N,138-33.6200E,161,19.397,34.8377
834,2006/1/10,20:29:00,30-45.0900N,138-33.7100E,161,19.396,34.8382
835,2006/1/10,20:30:00,30-44.8500N,138-33.8000E,160,19.387,34.8367
836,2006/1/10,20:31:00,30-44.6200N,138-33.8900E,161,19.392,34.8371
837,2006/1/10,20:32:00,30-44.4000N,138-33.9800E,161,19.385,34.8372
838,2006/1/10,20:33:00,30-44.1700N,138-34.0700E,160,19.387,34.8375
839,2006/1/10,20:34:00,30-43.9400N,138-34.1600E,161,19.386,34.8375
840,2006/1/10,20:35:00,30-43.7200N,138-34.2400E,162,19.393,34.8363
841,2006/1/10,20:36:00,30-43.4900N,138-34.3300E,161,19.396,34.8353
842,2006/1/10,20:37:00,30-43.2600N,138-34.4100E,162,19.396,34.8374
843,2006/1/10,20:38:00,30-43.0400N,138-34.5000E,162,19.391,34.8374
844,2006/1/10,20:39:00,30-42.8100N,138-34.5800E,162,19.4,34.8353
845,2006/1/10,20:40:00,30-42.5900N,138-34.6600E,162,19.393,34.836
846,2006/1/10,20:41:00,30-42.3600N,138-34.7500E,162,19.385,34.8374
847,2006/1/10,20:42:00,30-42.1300N,138-34.8300E,162,19.375,34.8363
848,2006/1/10,20:43:00,30-41.9100N,138-34.9100E,162,19.377,34.8377
849,2006/1/10,20:44:00,30-41.6800N,138-34.9900E,162,19.371,34.8378
850,2006/1/10,20:45:00,30-41.4500N,138-35.0700E,162,19.359,34.8368
851,2006/1/10,20:46:00,30-41.2200N,138-35.1600E,163,19.361,34.8365
852,2006/1/10,20:47:00,30-40.9900N,138-35.2400E,163,19.357,34.8382
853,2006/1/10,20:48:00,30-40.7600N,138-35.3200E,163,19.356,34.8374
854,2006/1/10,20:49:00,30-40.5400N,138-35.4000E,162,19.359,34.8378
855,2006/1/10,20:50:00,30-40.3100N,138-35.4900E,161,19.398,34.8372
856,2006/1/10,20:51:00,30-40.0800N,138-35.5800E,161,19.437,34.8381
857,2006/1/10,20:52:00,30-39.8600N,138-35.6600E,162,19.471,34.837
858,2006/1/10,20:53:00,30-39.6300N,138-35.7500E,161,19.506,34.8387
859,2006/1/10,20:54:00,30-39.4100N,138-35.8400E,161,19.526,34.8407
860,2006/1/10,20:55:00,30-39.1900N,138-35.9200E,161,19.532,34.8395
861,2006/1/10,20:56:00,30-38.9600N,138-36.0100E,161,19.54,34.8416
862,2006/1/10,20:57:00,30-38.7200N,138-36.1000E,161,19.54,34.8392
863,2006/1/10,20:58:00,30-38.5000N,138-36.1900E,162,19.533,34.8398
864,2006/1/10,20:59:00,30-38.2700N,138-36.2700E,161,19.532,34.8388
865,2006/1/10,21:00:00,30-38.0500N,138-36.3600E,161,19.548,34.8369
866,2006/1/10,21:01:00,30-37.8200N,138-36.4500E,161,19.552,34.8399
867,2006/1/10,21:02:00,30-37.6000N,138-36.5300E,161,19.546,34.8399
868,2006/1/10,21:03:00,30-37.3700N,138-36.6200E,161,19.553,34.8392
869,2006/1/10,21:04:00,30-37.1400N,138-36.7100E,162,19.545,34.8406
870,2006/1/10,21:05:00,30-36.9100N,138-36.7900E,162,19.537,34.8398
871,2006/1/10,21:06:00,30-36.6800N,138-36.8700E,162,19.523,34.8394
872,2006/1/10,21:07:00,30-36.4500N,138-36.9600E,162,19.505,34.8402
873,2006/1/10,21:08:00,30-36.2200N,138-37.0400E,162,19.49,34.8405
874,2006/1/10,21:09:00,30-35.9900N,138-37.1300E,162,19.474,34.8405
875,2006/1/10,21:10:00,30-35.7600N,138-37.2100E,162,19.466,34.842
876,2006/1/10,21:11:00,30-35.5300N,138-37.2900E,162,19.469,34.8416
877,2006/1/10,21:12:00,30-35.3000N,138-37.3800E,163,19.461,34.8443
878,2006/1/10,21:13:00,30-35.0700N,138-37.4600E,163,19.464,34.8443
879,2006/1/10,21:14:00,30-34.8300N,138-37.5400E,163,19.464,34.8436
880,2006/1/10,21:15:00,30-34.6000N,138-37.6200E,163,19.459,34.8432
881,2006/1/10,21:16:00,30-34.3600N,138-37.7000E,163,19.448,34.8437
882,2006/1/10,21:17:00,30-34.1300N,138-37.7800E,163,19.441,34.845
884,2006/1/10,21:19:00,30-33.6600N,138-37.9400E,163,19.405,34.8451
885,2006/1/10,21:20:00,30-33.4300N,138-38.0200E,162,19.386,34.8454
886,2006/1/10,21:21:00,30-33.1900N,138-38.1100E,161,19.348,34.8462
887,2006/1/10,21:22:00,30-32.9600N,138-38.2000E,161,19.323,34.8468
888,2006/1/10,21:23:00,30-32.7200N,138-38.2900E,162,19.325,34.8458
889,2006/1/10,21:24:00,30-32.4600N,138-38.3800E,162,19.318,34.8445
890,2006/1/10,21:25:00,30-32.2300N,138-38.4700E,161,19.319,34.8433
891,2006/1/10,21:26:00,30-32.0000N,138-38.5600E,161,19.324,34.8442
892,2006/1/10,21:27:00,30-31.7600N,138-38.6500E,162,19.339,34.8429
893,2006/1/10,21:28:00,30-31.5300N,138-38.7400E,161,19.351,34.8426
894,2006/1/10,21:29:00,30-31.2900N,138-38.8300E,161,19.344,34.8425
895,2006/1/10,21:30:00,30-31.0600N,138-38.9200E,161,19.328,34.843
896,2006/1/10,21:31:00,30-30.8200N,138-39.0200E,161,19.32,34.8429
897,2006/1/10,21:32:00,30-30.5800N,138-39.1100E,161,19.307,34.8428
898,2006/1/10,21:33:00,30-30.3500N,138-39.2000E,161,19.3,34.8427
899,2006/1/10,21:34:00,30-30.1200N,138-39.2900E,161,19.283,34.8424
900,2006/1/10,21:35:00,30-29.8800N,138-39.3900E,161,19.271,34.8426
901,2006/1/10,21:36:00,30-29.6500N,138-39.4800E,161,19.262,34.8435
902,2006/1/10,21:37:00,30-29.4200N,138-39.5700E,161,19.261,34.8443
903,2006/1/10,21:38:00,30-29.1800N,138-39.6600E,161,19.258,34.848
904,2006/1/10,21:39:00,30-28.9500N,138-39.7600E,161,19.254,34.8482
905,2006/1/10,21:40:00,30-28.7200N,138-39.8500E,161,19.255,34.849
906,2006/1/10,21:41:00,30-28.4800N,138-39.9400E,161,19.256,34.8487
907,2006/1/10,21:42:00,30-28.2500N,138-40.0300E,161,19.256,34.8485
908,2006/1/10,21:43:00,30-28.0200N,138-40.1200E,161,19.257,34.8488
909,2006/1/10,21:44:00,30-27.7800N,138-40.2100E,161,19.26,34.8495
910,2006/1/10,21:45:00,30-27.5500N,138-40.3000E,161,19.265,34.8492
911,2006/1/10,21:46:00,30-27.3200N,138-40.3900E,161,19.268,34.849
912,2006/1/10,21:47:00,30-27.0800N,138-40.4900E,160,19.267,34.8496
913,2006/1/10,21:48:00,30-26.8400N,138-40.5800E,161,19.272,34.8489
914,2006/1/10,21:49:00,30-26.6200N,138-40.6700E,161,19.273,34.851
915,2006/1/10,21:50:00,30-26.3700N,138-40.7700E,160,19.274,34.8487
916,2006/1/10,21:51:00,30-26.1300N,138-40.8600E,161,19.279,34.849
917,2006/1/10,21:52:00,30-25.8900N,138-40.9500E,161,19.277,34.8493
918,2006/1/10,21:53:00,30-25.6600N,138-41.0500E,161,19.271,34.8483
919,2006/1/10,21:54:00,30-25.4300N,138-41.1400E,160,19.271,34.8483
920,2006/1/10,21:55:00,30-25.1900N,138-41.2400E,160,19.293,34.8497
921,2006/1/10,21:56:00,30-24.9600N,138-41.3300E,160,19.296,34.8493
922,2006/1/10,21:57:00,30-24.7200N,138-41.4300E,160,19.31,34.8458
923,2006/1/10,21:58:00,30-24.4800N,138-41.5300E,161,19.309,34.8464
924,2006/1/10,21:59:00,30-24.2500N,138-41.6300E,158,19.318,34.8446
925,2006/1/10,22:00:00,30-24.0200N,138-41.7400E,157,19.328,34.8468
926,2006/1/10,22:01:00,30-23.7800N,138-41.8500E,157,19.337,34.8452
928,2006/1/10,22:03:00,30-23.3200N,138-42.0700E,157,19.341,34.8432
929,2006/1/10,22:04:00,30-23.0900N,138-42.1900E,157,19.345,34.8433
930,2006/1/10,22:05:00,30-22.8600N,138-42.3000E,157,19.344,34.8427
931,2006/1/10,22:06:00,30-22.6200N,138-42.4100E,157,19.35,34.8414
932,2006/1/10,22:07:00,30-22.3900N,138-42.5200E,157,19.357,34.8386
933,2006/1/10,22:08:00,30-22.1600N,138-42.6400E,157,19.365,34.8412
934,2006/1/10,22:09:00,30-21.9300N,138-42.7500E,157,19.365,34.8417
935,2006/1/10,22:10:00,30-21.7000N,138-42.8600E,157,19.365,34.841
936,2006/1/10,22:11:00,30-21.4600N,138-42.9700E,157,19.365,34.8406
937,2006/1/10,22:12:00,30-21.2400N,138-43.0800E,157,19.368,34.8403
938,2006/1/10,22:13:00,30-21.0000N,138-43.2000E,157,19.365,34.8408
939,2006/1/10,22:14:00,30-20.7700N,138-43.3100E,157,19.363,34.8416
940,2006/1/10,22:15:00,30-20.5400N,138-43.4200E,157,19.361,34.8406
941,2006/1/10,22:16:00,30-20.3100N,138-43.5300E,157,19.371,34.8381
942,2006/1/10,22:17:00,30-20.0600N,138-43.6500E,157,19.377,34.8378
943,2006/1/10,22:18:00,30-19.8300N,138-43.7600E,157,19.384,34.8406
944,2006/1/10,22:19:00,30-19.6000N,138-43.8700E,157,19.379,34.8406
945,2006/1/10,22:20:00,30-19.3700N,138-43.9800E,157,19.372,34.8385
946,2006/1/10,22:21:00,30-19.1400N,138-44.0900E,157,19.373,34.8381
947,2006/1/10,22:22:00,30-18.9100N,138-44.2100E,156,19.377,34.8383
948,2006/1/10,22:23:00,30-18.6800N,138-44.3200E,157,19.365,34.8397
949,2006/1/10,22:24:00,30-18.4500N,138-44.4300E,157,19.358,34.8391
950,2006/1/10,22:25:00,30-18.2200N,138-44.5400E,157,19.352,34.8391
951,2006/1/10,22:26:00,30-17.9900N,138-44.6500E,158,19.347,34.839
952,2006/1/10,22:27:00,30-17.7500N,138-44.7600E,158,19.345,34.8394
953,2006/1/10,22:28:00,30-17.5200N,138-44.8700E,157,19.351,34.8385
954,2006/1/10,22:29:00,30-17.2900N,138-44.9800E,157,19.356,34.8393
955,2006/1/10,22:30:00,30-17.0500N,138-45.0900E,158,19.358,34.8398
956,2006/1/10,22:31:00,30-16.8200N,138-45.2000E,157,19.366,34.8395
957,2006/1/10,22:32:00,30-16.5900N,138-45.3000E,158,19.374,34.8405
958,2006/1/10,22:33:00,30-16.3600N,138-45.4100E,158,19.391,34.8392
959,2006/1/10,22:34:00,30-16.1300N,138-45.5200E,158,19.396,34.8383
960,2006/1/10,22:35:00,30-15.8900N,138-45.6300E,157,19.427,34.8381
961,2006/1/10,22:36:00,30-15.6600N,138-45.7300E,160,19.462,34.8382
962,2006/1/10,22:37:00,30-15.4200N,138-45.8300E,160,19.492,34.838
963,2006/1/10,22:38:00,30-15.1900N,138-45.9200E,161,19.501,34.8355
964,2006/1/10,22:39:00,30-14.9500N,138-46.0200E,160,19.515,34.8345
965,2006/1/10,22:40:00,30-14.7200N,138-46.1100E,160,19.524,34.8342
966,2006/1/10,22:41:00,30-14.4900N,138-46.2000E,160,19.527,34.8355
967,2006/1/10,22:42:00,30-14.2500N,138-46.2900E,161,19.524,34.834
968,2006/1/10,22:43:00,30-14.0200N,138-46.3900E,161,19.521,34.8328
969,2006/1/10,22:44:00,30-13.7600N,138-46.4900E,161,19.521,34.8314
970,2006/1/10,22:45:00,30-13.5300N,138-46.5800E,161,19.516,34.8349
971,2006/1/10,22:46:00,30-13.2900N,138-46.6700E,161,19.513,34.8347
972,2006/1/10,22:47:00,30-13.0600N,138-46.7600E,161,19.508,34.8362
973,2006/1/10,22:48:00,30-12.8300N,138-46.8500E,161,19.493,34.8348
974,2006/1/10,22:49:00,30-12.6000N,138-46.9400E,161,19.486,34.8343
975,2006/1/10,22:50:00,30-12.3600N,138-47.0300E,161,19.476,34.8348
976,2006/1/10,22:51:00,30-12.1200N,138-47.1200E,161,19.464,34.834
977,2006/1/10,22:52:00,30-11.8900N,138-47.2100E,161,19.445,34.8352
978,2006/1/10,22:53:00,30-11.6500N,138-47.3000E,161,19.427,34.836
979,2006/1/10,22:54:00,30-11.4200N,138-47.3900E,161,19.406,34.8353
980,2006/1/10,22:55:00,30-11.1800N,138-47.4800E,162,19.395,34.837
981,2006/1/10,22:56:00,30-10.9400N,138-47.5800E,161,19.382,34.8379
982,2006/1/10,22:57:00,30-10.7000N,138-47.6700E,161,19.378,34.8391
983,2006/1/10,22:58:00,30-10.4600N,138-47.7600E,161,19.384,34.8388
984,2006/1/10,22:59:00,30-10.2300N,138-47.8500E,160,19.387,34.8392
985,2006/1/10,23:00:00,30-10.0000N,138-47.9500E,160,19.405,34.8397
986,2006/1/10,23:01:00,30-09.7600N,138-48.0400E,161,19.424,34.8409
987,2006/1/10,23:02:00,30-09.5300N,138-48.1300E,160,19.434,34.8418
988,2006/1/10,23:03:00,30-09.2900N,138-48.2200E,161,19.431,34.8413
989,2006/1/10,23:04:00,30-09.0600N,138-48.3100E,162,19.413,34.8408
990,2006/1/10,23:05:00,30-08.8200N,138-48.4000E,161,19.391,34.8418
991,2006/1/10,23:06:00,30-08.5900N,138-48.5000E,161,19.359,34.8427
992,2006/1/10,23:07:00,30-08.3500N,138-48.5900E,161,19.336,34.8436
993,2006/1/10,23:08:00,30-08.1100N,138-48.6800E,161,19.329,34.8471
994,2006/1/10,23:09:00,30-07.8800N,138-48.7700E,161,19.322,34.8511
995,2006/1/10,23:10:00,30-07.6400N,138-48.8600E,162,19.315,34.8538
996,2006/1/10,23:11:00,30-07.3900N,138-48.9500E,161,19.319,34.8564
997,2006/1/10,23:12:00,30-07.1600N,138-49.0400E,161,19.324,34.8557
998,2006/1/10,23:13:00,30-06.9200N,138-49.1300E,161,19.326,34.8554
999,2006/1/10,23:14:00,30-06.6900N,138-49.2300E,160,19.373,34.8587
1000,2006/1/10,23:15:00,30-06.4500N,138-49.3200E,161,19.434,34.8606
1001,2006/1/10,23:16:00,30-06.2200N,138-49.4100E,161,19.456,34.8692
1002,2006/1/10,23:17:00,30-05.9900N,138-49.5000E,161,19.46,34.8845
1003,2006/1/10,23:18:00,30-05.7500N,138-49.5900E,161,19.473,34.8922
1004,2006/1/10,23:19:00,30-05.5400N,138-49.6700E,161,19.476,34.8934
1005,2006/1/10,23:20:00,30-05.3300N,138-49.7500E,162,19.467,34.8939
1006,2006/1/10,23:21:00,30-05.1000N,138-49.8300E,162,19.474,34.8948
1007,2006/1/10,23:22:00,30-04.8700N,138-49.9200E,162,19.474,34.8918
1008,2006/1/10,23:23:00,30-04.6400N,138-50.0000E,162,19.475,34.8908
1009,2006/1/10,23:24:00,30-04.4000N,138-50.0900E,161,19.474,34.8943
1010,2006/1/10,23:25:00,30-04.1700N,138-50.1800E,161,19.475,34.8942
1011,2006/1/10,23:26:00,30-03.9400N,138-50.2700E,161,19.487,34.8936
1012,2006/1/10,23:27:00,30-03.7100N,138-50.3600E,160,19.48,34.8948
1013,2006/1/10,23:28:00,30-03.4900N,138-50.4500E,159,19.481,34.8954
1014,2006/1/10,23:29:00,30-03.2600N,138-50.5500E,159,19.447,34.8956
1015,2006/1/10,23:30:00,30-03.0300N,138-50.6500E,159,19.429,34.8986
1016,2006/1/10,23:31:00,30-02.8100N,138-50.7500E,158,19.413,34.8928
1017,2006/1/10,23:32:00,30-02.5800N,138-50.8500E,158,19.38,34.89
1018,2006/1/10,23:33:00,30-02.3600N,138-50.9500E,158,19.35,34.8899
1019,2006/1/10,23:34:00,30-02.1300N,138-51.0500E,158,19.313,34.8865
1020,2006/1/10,23:35:00,30-01.9100N,138-51.1500E,158,19.342,34.883
1021,2006/1/10,23:36:00,30-01.6900N,138-51.2500E,158,19.363,34.8731
1022,2006/1/10,23:37:00,30-01.4600N,138-51.3500E,159,19.376,34.8785
1023,2006/1/10,23:38:00,30-01.2400N,138-51.4400E,162,19.384,34.8859
1024,2006/1/10,23:39:00,30-01.0100N,138-51.5200E,162,19.398,34.8871
1025,2006/1/10,23:40:00,30-00.7800N,138-51.6000E,162,19.407,34.8887
1026,2006/1/10,23:41:00,30-00.5400N,138-51.6800E,163,19.407,34.8896
1027,2006/1/10,23:42:00,30-00.3000N,138-51.7700E,162,19.432,34.8897
1028,2006/1/10,23:43:00,30-00.0700N,138-51.8500E,162,19.444,34.889
1029,2006/1/10,23:44:00,29-59.8300N,138-51.9400E,162,19.442,34.8915
1030,2006/1/10,23:45:00,29-59.6100N,138-52.0200E,162,19.457,34.893
1031,2006/1/10,23:46:00,29-59.3700N,138-52.1000E,162,19.451,34.8933
1032,2006/1/10,23:47:00,29-59.1400N,138-52.1900E,162,19.44,34.8953
1033,2006/1/10,23:48:00,29-58.9100N,138-52.2700E,162,19.439,34.8944
1034,2006/1/10,23:49:00,29-58.6800N,138-52.3500E,162,19.428,34.8917
1035,2006/1/10,23:50:00,29-58.4500N,138-52.4400E,162,19.431,34.8908
1036,2006/1/10,23:51:00,29-58.2100N,138-52.5200E,162,19.437,34.8914
1037,2006/1/10,23:52:00,29-57.9800N,138-52.6000E,162,19.429,34.891
1038,2006/1/10,23:53:00,29-57.7400N,138-52.6900E,162,19.458,34.8898
1039,2006/1/10,23:54:00,29-57.5100N,138-52.7700E,162,19.486,34.8879
1040,2006/1/10,23:55:00,29-57.2800N,138-52.8500E,162,19.506,34.8903
1041,2006/1/10,23:56:00,29-57.0500N,138-52.9400E,162,19.513,34.897
1042,2006/1/10,23:57:00,29-56.8200N,138-53.0200E,163,19.507,34.8974
1043,2006/1/10,23:58:00,29-56.5900N,138-53.1000E,163,19.507,34.8949
1044,2006/1/10,23:59:00,29-56.3600N,138-53.1800E,163,19.507,34.898
1045,2006/1/11,0:00:00,29-56.1200N,138-53.2600E,162,19.497,34.898
1046,2006/1/11,0:01:00,29-55.8900N,138-53.3500E,162,19.489,34.9011
1047,2006/1/11,0:02:00,29-55.6600N,138-53.4300E,162,19.489,34.8986
1048,2006/1/11,0:03:00,29-55.4300N,138-53.5100E,162,19.487,34.8997
1049,2006/1/11,0:04:00,29-55.2000N,138-53.6000E,162,19.486,34.8997
1050,2006/1/11,0:05:00,29-54.9700N,138-53.6800E,162,19.487,34.9004
1051,2006/1/11,0:06:00,29-54.7300N,138-53.7600E,162,19.486,34.8993
1052,2006/1/11,0:07:00,29-54.5000N,138-53.8400E,162,19.489,34.901
1053,2006/1/11,0:08:00,29-54.2600N,138-53.9300E,163,19.503,34.9004
1054,2006/1/11,0:09:00,29-54.0100N,138-54.0200E,162,19.505,34.8999
1055,2006/1/11,0:10:00,29-53.7800N,138-54.1000E,163,19.518,34.9007
1056,2006/1/11,0:11:00,29-53.5500N,138-54.1800E,162,19.521,34.9047
1057,2006/1/11,0:12:00,29-53.3200N,138-54.2700E,161,19.516,34.905
1058,2006/1/11,0:13:00,29-53.0800N,138-54.3500E,162,19.511,34.9053
1059,2006/1/11,0:14:00,29-52.8500N,138-54.4400E,162,19.502,34.9053
1060,2006/1/11,0:15:00,29-52.6100N,138-54.5200E,162,19.491,34.9059
1061,2006/1/11,0:16:00,29-52.3800N,138-54.6000E,163,19.482,34.9039
1062,2006/1/11,0:17:00,29-52.1400N,138-54.6800E,163,19.478,34.9026
1063,2006/1/11,0:18:00,29-51.9100N,138-54.7600E,163,19.463,34.9012
1064,2006/1/11,0:19:00,29-51.6700N,138-54.8500E,162,19.45,34.9003
1065,2006/1/11,0:20:00,29-51.4300N,138-54.9300E,162,19.432,34.9
1066,2006/1/11,0:21:00,29-51.2000N,138-55.0200E,162,19.42,34.8998
1067,2006/1/11,0:22:00,29-50.9700N,138-55.1000E,162,19.404,34.8983
1068,2006/1/11,0:23:00,29-50.7300N,138-55.1900E,162,19.385,34.8928
1069,2006/1/11,0:24:00,29-50.5000N,138-55.2700E,162,19.431,34.8918
1070,2006/1/11,0:25:00,29-50.2700N,138-55.3600E,162,19.447,34.8879
1071,2006/1/11,0:26:00,29-50.0400N,138-55.4400E,163,19.454,34.8875
1072,2006/1/11,0:27:00,29-49.8100N,138-55.5300E,162,19.461,34.8869
1073,2006/1/11,0:28:00,29-49.5900N,138-55.6100E,162,19.487,34.8862
1074,2006/1/11,0:29:00,29-49.3600N,138-55.7000E,160,19.586,34.8851
1075,2006/1/11,0:30:00,29-49.1300N,138-55.7900E,160,19.679,34.8832
1076,2006/1/11,0:31:00,29-48.9000N,138-55.8800E,160,19.757,34.8881
1077,2006/1/11,0:32:00,29-48.6800N,138-55.9700E,161,19.816,34.8959
1078,2006/1/11,0:33:00,29-48.4500N,138-56.0600E,161,19.862,34.901
1079,2006/1/11,0:34:00,29-48.2200N,138-56.1500E,161,19.887,34.9018
1080,2006/1/11,0:35:00,29-47.9700N,138-56.2500E,160,19.91,34.9036
1081,2006/1/11,0:36:00,29-47.7500N,138-56.3400E,160,19.928,34.9053
1082,2006/1/11,0:37:00,29-47.5200N,138-56.4300E,160,19.958,34.907
1083,2006/1/11,0:38:00,29-47.2900N,138-56.5100E,161,19.969,34.905
1084,2006/1/11,0:39:00,29-47.0600N,138-56.6000E,162,19.981,34.9045
1085,2006/1/11,0:40:00,29-46.8300N,138-56.6800E,162,19.995,34.9034
1086,2006/1/11,0:41:00,29-46.6000N,138-56.7600E,163,20.005,34.9033
1087,2006/1/11,0:42:00,29-46.3600N,138-56.8400E,163,20,34.904
1088,2006/1/11,0:43:00,29-46.1400N,138-56.9200E,162,20.001,34.9043
1089,2006/1/11,0:44:00,29-45.9100N,138-57.0100E,162,20.003,34.9039
1090,2006/1/11,0:45:00,29-45.6800N,138-57.0900E,163,19.995,34.9037
1091,2006/1/11,0:46:00,29-45.4500N,138-57.1600E,164,19.988,34.9059
1092,2006/1/11,0:47:00,29-45.2100N,138-57.2400E,164,19.98,34.9046
1093,2006/1/11,0:48:00,29-44.9800N,138-57.3100E,165,19.97,34.9044
1094,2006/1/11,0:49:00,29-44.7400N,138-57.3800E,165,19.959,34.8999
1095,2006/1/11,0:50:00,29-44.5100N,138-57.4500E,164,19.96,34.9054
1096,2006/1/11,0:51:00,29-44.2800N,138-57.5300E,164,19.971,34.9048
1097,2006/1/11,0:52:00,29-44.0400N,138-57.6000E,164,19.992,34.9033
1098,2006/1/11,0:53:00,29-43.8100N,138-57.6800E,164,20.013,34.9037
1099,2006/1/11,0:54:00,29-43.5800N,138-57.7500E,165,20.025,34.903
1100,2006/1/11,0:55:00,29-43.3400N,138-57.8200E,165,20.044,34.9028
1101,2006/1/11,0:56:00,29-43.1100N,138-57.8900E,165,20.038,34.9009
1102,2006/1/11,0:57:00,29-42.8800N,138-57.9500E,164,20.045,34.9003
1103,2006/1/11,0:58:00,29-42.6400N,138-58.0300E,165,20.053,34.9006
1104,2006/1/11,0:59:00,29-42.4100N,138-58.1000E,164,20.062,34.9021
1105,2006/1/11,1:00:00,29-42.1800N,138-58.1700E,164,20.058,34.9065
1106,2006/1/11,1:01:00,29-41.9500N,138-58.2400E,165,20.048,34.9066
1107,2006/1/11,1:02:00,29-41.7000N,138-58.3100E,165,20.046,34.9061
1108,2006/1/11,1:03:00,29-41.4600N,138-58.3800E,165,20.04,34.9068
1109,2006/1/11,1:04:00,29-41.2300N,138-58.4600E,163,20.04,34.9078
1110,2006/1/11,1:05:00,29-41.0000N,138-58.5400E,162,20.04,34.9062
1111,2006/1/11,1:06:00,29-40.7700N,138-58.6200E,163,20.036,34.9058
1112,2006/1/11,1:07:00,29-40.5400N,138-58.7000E,162,20.036,34.9068
1113,2006/1/11,1:08:00,29-40.3100N,138-58.7800E,163,20.046,34.9062
1114,2006/1/11,1:09:00,29-40.0800N,138-58.8600E,161,20.059,34.906
1115,2006/1/11,1:10:00,29-39.8500N,138-58.9500E,160,20.082,34.9075
1116,2006/1/11,1:11:00,29-39.6200N,138-59.0400E,161,20.09,34.9085
1117,2006/1/11,1:12:00,29-39.4000N,138-59.1300E,161,20.094,34.91
1118,2006/1/11,1:13:00,29-39.1700N,138-59.2100E,161,20.096,34.9104
1119,2006/1/11,1:14:00,29-38.9400N,138-59.3000E,161,20.095,34.9099
1120,2006/1/11,1:15:00,29-38.7100N,138-59.3800E,162,20.096,34.9097
1121,2006/1/11,1:16:00,29-38.4700N,138-59.4600E,162,20.098,34.91
1122,2006/1/11,1:17:00,29-38.2300N,138-59.5500E,162,20.099,34.9085
1123,2006/1/11,1:18:00,29-38.0000N,138-59.6400E,162,20.095,34.9089